Presure
122 86 147 161 83 156 118 131 95 145 168 127 240 221 134 186 106 160 136 263 111 264 123 133 261 252 243 255 195 151 113 145 91 133 87 112 137 126 133 133 112 131 128 109 128 120 104 135 127
174 131 193 128 176 189 240 191 119 148 188 224 256 218 260 237 134 232 218 256 274 267 171 260 193 252 179 162 240 187 229 237 167 79 156 91 123 128 135 121 114 128 128 128 136 137 139 120 133
115 169 254 179 240 222 217 142 178 211 159 231 183 236 212 250 201 265 269 268 258 123 132 213 238 149 75 130 251 193 218 220 84 240 238 149 96 99 103 109 103 124 135 133 143 138 123 130 130
161 151 186 148 183 201 163 161 250 223 153 248 151 158 261 269 325 333 396 269 353 269 246 264 289 69 281 117 265 157 202 223 147 209 216 194 167 239 239 231 110 126 110 132 120 134 100 116 114
189 118 202 200 223 210 169 217 152 216 168 250 185 302 310 367 371 368 356 360 400 329 315 241 236 242 267 244 234 200 233 233 209 221 206 175 208 206 140 146 233 139 204 173 125 122 111 112 135
180 220 203 138 191 228 235 239 240 246 198 245 313 306 316 334 323 312 334 364 345 246 363 242 252 260 247 241 234 216 211 193 197 192 198 200 179 199 209 91 156 173 210 166 171 171 206 215 120
177 215 245 224 229 228 182 235 206 249 242 274 290 282 290 264 252 266 266 230 287 262 278 276 234 222 233 216 236 223 194 199 204 183 190 191 204 199 213 211 170 178 179 203 102 207 144 139 109
245 238 227 225 216 226 224 232 155 240 310 283 267 289 264 262 252 250 269 274 274 270 283 115 231 231 231 226 232 212 192 194 150 204 185 192 189 194 193 205 192 207 204 90 107 203 185 220 131
215 193 204 219 214 215 220 217 241 309 257 279 264 287 247 249 237 229 225 274 238 249 245 217 238 213 213 207 194 197 193 202 181 189 188 186 146 152 191 98 188 155 110 113 154 213 142 111 117
221 219 208 207 210 211 234 236 261 238 270 269 251 271 238 230 243 220 255 237 248 255 236 245 211 206 185 187 201 165 179 105 168 144 182 183 187 192 186 197 101 110 102 123 205 152 198 126 117
211 202 136 207 213 229 221 246 265 253 265 243 256 267 220 220 213 219 234 237 223 243 214 208 179 184 186 182 188 177 174 114 113 98 195 182 204 187 194 205 212 195 189 191 126 184 171 178 145
210 202 203 210 222 200 225 239 254 243 254 226 248 234 211 203 233 217 210 232 197 191 201 200 181 172 158 189 184 166 191 170 175 114 177 143 148 192 190 189 199 184 196 170 108 95 171 160 152
206 201 206 207 199 218 225 220 271 250 243 228 244 223 213 185 229 208 208 222 197 202 182 185 195 191 199 206 194 181 187 187 183 191 138 128 95 157 182 188 181 193 174 187 208 182 211 184 143
211 201 193 193 206 215 221 218 276 248 235 222 241 205 223 199 203 192 217 190 198 201 187 196 191 183 194 152 203 208 193 186 170 170 175 165 165 150 103 185 208 198 172 178 123 170 194 173 183
206 191 181 193 192 214 216 210 254 263 244 240 234 209 262 203 195 206 198 195 206 202 202 190 188 187 215 203 202 176 153 202 192 195 184 183 188 141 171 153 110 183 188 190 179 173 172 183 181
204 184 198 201 203 207 205 205 265 247 254 258 198 199 251 227 198 197 190 187 210 177 202 195 188 212 198 187 188 184 173 192 191 171 178 169 181 181 202 175 182 160 172 158 173 163 174 148 172
191 176 201 188 194 195 188 209 195 230 247 240 236 217 206 239 178 176 191 212 193 182 194 192 187 191 195 172 174 195 170 192 181 162 175 185 183 177 137 153 165 183 121 172 181 174 178 171 171
188 192 187 186 192 199 197 207 209 222 226 219 241 220 211 229 232 172 177 211 198 193 178 192 189 203 186 191 185 168 172 166 190 171 182 187 174 182 168 176 185 175 181 172 183 180 187 185 190
191 196 194 173 187 197 196 192 201 212 206 274 261 236 253 204 228 261 202 210 173 186 192 198 184 196 193 185 177 201 169 188 173 191 182 179 182 186 175 200 182 136 173 184 187 183 205 188 192
186 197 189 179 184 187 195 196 196 211 211 210 251 224 269 242 217 239 254 191 216 187 195 205 189 200 187 199 217 205 191 181 180 182 176 158 175 183 188 189 188 173 189 155 185 206 204 194 195
188 200 177 180 175 176 182 183 193 197 201 208 203 267 255 270 243 224 239 247 237 229 175 193 188 181 192 178 171 187 181 188 174 180 178 173 168 181 176 194 169 168 210 193 193 202 219 211 200
185 181 188 186 182 183 179 179 187 196 193 200 206 220 256 260 261 247 225 234 239 245 257 243 208 196 187 185 201 186 119 138 243 207 183 187 181 192 185 208 195 151 140 185 210 178 192 195 195
194 180 190 183 171 178 174 177 184 186 192 195 205 203 226 251 263 258 244 250 230 231 235 237 244 246 238 226 204 120 132 212 196 130 221 210 203 187 207 196 197 201 218 195 193 193 191 200 195
203 185 175 179 168 165 167 171 189 178 182 188 198 199 204 212 254 241 255 259 232 231 226 226 227 238 236 210 237 211 143 194 215 217 209 229 224 216 235 203 210 195 199 201 201 204 201 206 206
186 164 153 175 179 160 163 162 166 181 183 175 203 191 196 199 211 264 255 262 241 230 228 227 227 212 220 218 220 165 220 203 203 212 207 195 194 201 201 197 195 198 202 211 207 205 203 201 196
183 199 191 180 162 161 174 179 171 179 185 180 181 200 188 197 219 211 254 213 261 248 226 227 216 221 213 221 224 222 219 222 218 194 194 199 199 195 207 194 196 193 203 204 203 202 193 193 206
186 192 184 158 181 156 179 180 173 175 187 178 177 186 193 178 197 210 236 218 256 245 255 239 222 223 218 208 206 200 207 205 217 219 218 216 209 210 207 204 203 196 197 202 215 218 212 220 219
194 189 192 197 197 167 175 154 181 182 169 187 173 191 200 189 178 195 202 221 203 249 257 240 254 236 218 213 218 220 217 210 212 212 212 213 207 201 187 194 201 202 201 197 198 219 212 173 195
191 190 181 195 196 176 192 157 187 173 187 185 183 171 187 195 179 185 195 198 207 223 208 251 246 250 264 242 217 205 195 209 200 205 202 203 201 195 212 210 206 218 224 220 230 194 227 180 215
178 190 184 193 187 174 193 163 199 183 198 168 189 180 174 193 198 177 170 189 195 206 218 194 224 248 235 259 254 245 228 221 216 213 213 208 210 184 210 212 225 223 193 205 214 208 206 203 214
Wind_Speed
68 34 78 76 31 85 63 61 42 64 81 65 66 70 67 78 62 68 57 79 69 72 34 67 71 68 70 64 49 53 43 68 38 80 32 53 80 67 74 74 54 70 62 43 64 48 38 62 48
73 70 64 72 67 73 62 73 64 79 67 65 70 76 73 77 70 72 70 72 71 64 76 68 66 67 64 44 62 44 63 59 50 29 61 40 63 73 78 60 59 68 60 61 71 73 75 60 63
69 80 52 73 60 66 61 71 79 71 82 69 75 66 71 70 74 70 71 70 67 66 43 62 66 69 21 40 57 52 64 63 32 40 39 77 44 51 47 51 47 50 69 63 78 71 57 63 59
78 81 58 77 74 71 80 80 61 68 79 67 75 77 63 67 44 40 32 64 37 53 57 62 49 17 36 81 47 45 58 48 41 59 46 49 54 38 38 52 53 58 49 53 48 64 46 52 58
69 68 64 56 59 63 75 67 72 63 65 63 70 52 38 27 29 27 25 24 26 33 48 51 55 52 44 45 54 50 40 37 58 31 40 65 55 64 60 62 43 60 66 62 54 53 53 54 71
64 55 61 78 60 57 56 57 57 54 64 60 28 28 23 24 12 3 6 18 21 36 25 37 43 38 40 45 44 49 41 60 50 58 58 53 79 62 56 40 49 44 65 61 49 72 42 57 60
58 45 37 49 48 50 55 56 52 56 58 50 21 30 16 9 18 6 9 14 16 26 31 37 36 41 43 52 44 45 57 47 45 51 67 64 49 59 50 42 47 46 53 53 42 64 68 65 56
31 32 36 42 46 48 49 54 65 53 20 22 29 21 16 15 12 9 10 17 18 18 18 48 34 38 42 45 43 48 57 58 50 47 72 56 69 67 68 51 64 47 49 33 47 28 57 29 60
45 53 48 41 46 46 47 46 52 29 21 20 26 17 18 15 16 12 13 18 22 24 36 40 36 34 39 41 43 50 56 50 49 65 63 72 45 66 69 46 67 58 46 50 51 39 49 55 57
36 33 41 44 45 49 50 46 40 40 17 20 24 17 24 16 22 17 18 23 23 23 39 39 31 34 41 46 46 45 60 32 57 37 71 69 65 69 77 66 47 50 54 63 42 56 38 47 62
35 40 60 41 42 42 43 40 29 29 21 21 19 17 20 24 25 21 26 25 33 31 38 43 43 48 49 50 58 61 63 25 37 45 63 62 62 69 71 58 55 52 61 55 71 51 55 54 76
33 36 39 38 36 36 42 36 27 26 26 5 19 30 24 26 34 30 22 39 23 28 47 52 44 43 40 62 61 55 68 63 64 47 67 44 57 63 67 70 63 51 51 54 39 37 58 62 72
27 31 32 33 32 36 38 34 22 19 23 9 15 23 33 19 42 35 33 48 33 45 30 43 62 63 72 73 70 62 67 58 71 68 54 53 41 61 65 64 53 58 49 55 58 48 55 50 57
22 24 28 34 34 34 34 32 16 22 24 17 24 17 37 32 43 29 47 34 41 47 39 54 47 43 68 40 75 64 76 69 47 49 56 47 63 48 49 64 71 62 48 55 51 51 62 61 44
16 27 43 33 30 30 29 28 20 21 25 22 21 9 28 44 40 40 44 43 54 58 64 47 44 45 67 72 72 49 43 65 66 64 65 66 69 49 46 52 53 62 64 66 58 51 50 61 56
15 30 27 28 27 25 24 24 21 19 16 16 20 20 13 48 43 42 41 36 61 32 65 63 51 67 66 58 50 57 49 63 70 41 51 40 59 63 70 59 63 50 53 44 59 47 57 64 57
18 37 19 28 26 25 20 23 20 23 14 15 17 18 20 16 30 31 45 65 57 41 62 58 54 59 69 41 50 74 46 75 64 40 53 70 63 58 48 61 45 70 54 69 75 69 75 55 62
18 15 16 26 25 24 19 24 20 21 20 16 17 20 19 19 34 36 36 72 66 64 43 63 51 75 61 66 56 41 46 43 75 53 69 73 61 65 51 71 69 73 79 68 83 81 87 76 93
17 16 14 33 24 18 21 15 20 18 12 19 15 18 21 24 25 21 66 70 33 51 69 72 55 75 70 63 60 78 53 73 55 75 72 69 74 80 74 80 80 53 72 88 93 92 87 87 85
24 18 17 22 22 18 19 23 19 26 22 22 20 17 22 21 26 19 23 54 68 58 66 80 67 76 66 65 66 80 77 70 63 71 64 37 66 75 80 84 85 66 89 67 86 86 87 84 84
22 21 22 19 25 25 19 17 21 18 20 22 17 17 16 18 19 24 21 27 47 49 38 70 72 62 73 58 47 58 63 65 69 75 70 64 61 70 69 75 61 62 79 77 78 80 73 71 72
28 20 24 23 22 21 19 17 20 22 14 18 20 23 17 14 18 21 25 23 27 33 25 49 83 75 64 61 76 68 28 37 63 80 73 73 70 74 72 73 69 53 49 69 75 63 70 70 73
35 26 26 24 24 22 24 19 19 19 22 17 20 20 27 17 13 16 21 24 26 28 27 29 32 43 62 73 71 27 29 56 34 33 72 73 69 70 73 66 71 75 77 70 71 70 71 74 75
35 32 28 24 29 26 28 22 19 16 18 16 21 18 21 22 16 15 16 20 25 26 29 30 33 29 34 55 34 58 37 62 56 51 55 59 58 63 65 67 67 66 68 70 72 73 73 72 70
36 43 33 30 32 29 28 24 23 21 19 16 24 16 16 19 21 14 12 17 20 27 30 29 29 38 34 39 44 43 47 55 54 49 52 60 63 59 60 63 64 64 68 66 65 64 63 65 65
38 35 37 37 33 33 32 30 31 23 20 20 22 21 16 20 26 19 17 12 13 21 29 31 32 32 37 31 32 34 39 42 47 56 54 56 57 59 60 64 66 67 64 64 63 63 60 63 71
42 33 39 39 38 34 31 34 31 33 19 23 19 22 21 15 21 25 23 18 15 14 24 34 31 31 32 40 41 46 42 45 39 39 43 49 55 53 54 57 59 63 63 65 65 64 64 62 56
36 40 38 38 40 43 35 33 36 30 29 25 22 23 18 21 13 16 22 22 19 14 15 21 33 40 37 36 36 38 42 44 44 47 47 47 50 51 56 59 58 61 61 61 62 63 56 53 55
40 38 45 41 38 40 38 41 39 32 35 27 29 22 24 17 19 15 20 19 21 19 19 15 19 23 29 43 41 44 46 42 46 44 47 47 50 56 55 60 61 59 57 52 55 54 55 57 57
55 48 47 36 39 43 38 47 41 37 39 38 32 32 25 22 23 23 27 19 20 22 23 24 20 20 26 25 33 44 48 50 53 53 54 53 52 50 56 57 59 55 52 56 58 58 57 55 67
Wind_Direction
270 270 268 272 294 272 271 277 292 273 275 274 274 273 272 275 272 273 266 269 272 265 264 274 255 254 253 250 250 252 250 258 261 263 278 274 263 266 259 263 270 270 273 259 269 271 260 272 273
277 271 279 278 277 278 285 280 270 276 277 284 284 280 280 277 270 272 270 271 267 263 267 254 263 250 250 247 241 243 244 244 246 281 262 270 270 270 267 267 269 265 265 267 265 265 267 275 270
275 273 288 275 283 280 281 273 276 280 277 284 279 285 278 282 274 274 270 267 265 270 264 254 248 256 264 257 239 244 240 238 267 230 236 257 264 269 274 273 270 266 264 265 263 266 268 270 269
271 272 277 273 276 280 271 273 288 285 278 291 281 279 285 282 283 277 260 264 242 255 248 248 237 267 231 266 229 244 243 226 249 243 237 249 264 247 254 257 274 263 268 264 259 267 268 261 263
277 273 278 280 284 281 276 283 278 287 283 292 283 302 303 316 293 274 268 252 246 231 231 248 247 247 231 226 224 238 213 219 238 231 233 251 243 244 265 264 256 264 262 260 261 260 264 261 264
279 284 280 278 284 287 291 292 294 296 286 296 307 310 328 346 318 93 256 257 244 235 233 236 230 230 215 216 206 217 216 236 236 242 242 240 252 249 245 256 255 255 257 257 263 260 266 267 261
281 283 289 285 289 290 289 297 299 303 302 300 300 307 293 241 261 205 227 245 198 212 215 211 223 219 210 224 207 208 228 221 220 232 241 243 249 242 244 243 252 255 255 262 258 266 257 257 261
293 295 291 292 290 296 298 300 282 306 295 283 293 284 200 196 196 235 184 150 144 188 202 270 194 200 198 207 197 204 225 220 237 229 241 240 246 243 243 243 250 252 254 262 263 269 267 262 259
287 281 285 295 292 297 300 302 312 311 277 264 293 255 212 171 235 238 240 167 179 170 157 185 182 198 198 212 220 216 221 222 229 231 240 246 250 253 248 258 254 251 253 260 263 270 257 258 263
288 291 288 290 296 298 302 314 308 302 283 275 294 231 189 209 170 235 157 183 173 176 173 166 169 194 215 221 213 230 233 245 236 237 245 253 257 255 258 259 252 246 246 257 262 261 267 265 258
286 287 287 295 304 301 308 312 314 307 298 338 273 234 222 209 238 221 170 157 161 152 156 164 222 209 207 221 219 233 247 264 236 254 241 250 256 260 263 266 262 265 258 259 250 264 263 260 258
287 286 290 302 302 308 314 314 313 316 314 316 278 182 207 242 167 184 212 165 206 183 171 176 209 223 247 219 229 237 230 245 251 243 257 254 261 258 265 270 273 272 271 254 278 276 262 257 257
287 292 302 310 310 313 316 316 318 302 315 304 270 244 207 241 172 221 211 173 230 185 224 200 201 204 211 214 221 232 229 237 245 246 250 254 272 262 271 275 287 284 275 286 291 272 293 262 262
294 296 296 302 316 318 319 319 303 300 312 268 286 227 207 224 217 254 180 252 220 191 228 204 215 242 220 254 219 221 226 236 270 270 246 273 256 266 268 284 269 281 283 284 271 263 289 285 289
294 287 282 305 310 319 325 320 330 285 300 292 290 163 239 215 219 215 234 235 207 201 197 229 245 231 213 216 219 250 261 228 236 242 253 257 259 257 288 285 273 282 283 290 292 286 284 295 295
285 283 310 308 316 327 335 323 351 328 308 270 236 201 269 214 216 231 237 255 201 248 205 217 238 211 219 237 237 244 270 237 234 280 271 269 267 270 263 283 279 284 283 256 286 260 287 266 292
271 273 300 300 309 315 310 330 313 350 312 292 270 258 222 254 225 237 229 203 229 253 223 241 248 242 222 261 246 230 274 236 257 250 255 254 263 279 270 266 279 284 262 283 285 287 293 286 290
259 286 285 290 305 317 327 338 339 352 351 318 277 255 239 242 227 245 240 211 222 229 252 235 232 220 241 234 243 255 255 275 247 276 260 259 279 268 285 287 273 286 283 289 287 288 287 287 288
258 277 254 278 292 324 329 326 342 338 354 337 299 272 266 234 247 273 224 213 243 243 232 227 244 219 234 254 263 236 272 252 274 250 262 270 271 270 279 269 278 261 284 282 284 283 282 287 286
254 264 242 270 282 300 321 329 332 347 4 358 334 319 271 255 247 245 246 234 224 242 240 221 234 232 251 244 244 238 249 262 263 261 269 275 272 269 269 272 274 276 278 274 280 283 282 283 284
251 262 247 253 275 287 303 314 324 341 353 355 349 325 306 276 255 232 237 238 232 237 244 239 242 250 244 254 261 254 260 259 266 265 262 266 271 270 270 270 266 268 273 276 277 281 285 285 285
246 229 245 245 251 283 288 299 315 334 335 348 351 352 327 298 271 264 245 233 242 229 239 240 239 244 249 255 251 255 275 269 251 251 261 262 263 264 267 271 271 271 276 277 278 278 278 284 284
248 228 243 248 260 267 286 296 308 321 327 334 346 354 344 326 301 278 258 246 241 236 236 241 239 240 248 250 250 257 263 253 256 273 247 250 257 262 268 268 268 271 273 274 274 277 280 281 282
247 239 222 240 256 267 284 289 298 303 308 313 337 345 348 338 325 317 272 249 243 243 241 243 239 241 239 245 243 246 262 255 243 249 251 248 253 256 261 263 268 267 272 273 275 275 277 280 282
238 245 264 250 244 267 275 275 281 294 298 287 335 316 341 340 333 323 302 255 252 249 246 245 244 240 243 241 243 254 247 251 250 250 251 251 253 258 261 263 265 268 270 270 272 275 279 281 285
250 249 245 234 259 261 266 264 273 282 287 294 303 321 317 336 340 329 339 292 271 252 253 250 243 242 241 246 245 247 247 248 248 251 254 256 260 262 263 265 266 270 270 273 274 277 282 286 287
237 245 253 256 243 264 247 266 263 276 276 279 286 303 312 285 335 336 345 323 316 282 253 248 250 247 240 240 241 245 245 249 251 252 250 250 255 258 260 262 266 270 275 276 277 278 280 283 285
236 238 243 250 251 252 240 274 257 269 268 272 265 298 323 301 272 321 324 332 306 318 281 266 251 249 249 247 248 247 247 250 253 253 255 258 261 264 270 268 269 270 274 281 284 280 280 285 282
227 232 237 244 247 253 258 263 258 251 272 271 269 261 288 296 259 276 310 310 311 320 297 294 275 259 255 248 252 251 255 253 253 256 260 262 265 265 275 275 274 278 282 284 288 281 298 274 312
230 233 235 242 244 244 258 256 261 255 269 269 278 272 266 285 286 255 242 295 304 313 316 281 293 280 274 253 248 252 257 259 260 264 266 269 270 278 275 276 277 278 282 290 300 301 306 307 311